Location: Alto Pass Reservoir
(37.5801°N, 89.3084°W)
Time: 11:42:01
(UTC+00:00)

NEOSSAT - Pass Details

Date: 01 October 2022
Orbit: 767 x 784 km, 98.4° (Epoch: 26 November)

Event Time Altitude Azimuth Distance (km) Brightness Sun altitude
Rises 01:41:21 0° 0° (N) 3,280 ? -24.3°
Reaches altitude 10° 01:43:57 10° 349° (N) 2,348 ? -24.8°
Maximum altitude 01:48:18 28° 292° (WNW) 1,439 ? -25.6°
Drops below altitude 10° 01:52:38 10° 235° (SW) 2,336 ? -26.5°
Sets 01:55:13 0° 224° (SW) 3,259 ? -26.9°
